{"data":{"norad_id":49148,"intl_designator":"2021-082U","name":"STARLINK-3048","alt_names":[],"object_type":"PAYLOAD","status":"ACTIVE","operator":null,"country":"US","launch_date":"2021-09-14","launch_site_code":"AFWTR","launch_vehicle":null,"mission":null,"orbit_class":"UNKNOWN","rcs_meters":null,"size_class":null,"mass_kg":null,"dimensions":null,"purposes":["comms"],"wikipedia_slug":null,"has_3d_model":false,"image_url":null,"decayed_at":null,"tle_current":{"epoch":"2026-09-20T02:34:11.896032Z","epoch_age_seconds":75252,"freshness":"FRESH","line1":"1 49148U 21082U   26263.10708213 -.00001088  00000+0 -85241-4 0  9992","line2":"2 49148  69.9984 145.6502 0002951 272.4577  87.6244 14.97515564275559","mean_motion":14.97515564,"eccentricity":0.0002951,"inclination_deg":69.9984,"raan_deg":145.6502,"arg_perigee_deg":272.4577,"mean_anomaly_deg":87.6244,"bstar":-8.5241e-5,"rev_number":27555,"period_min":96.159267697601,"perigee_km":572.52386298835,"apogee_km":576.62735396988,"semimajor_km":6952.7126084791,"source":"CELESTRAK","updated_at":"2026-09-20T09:00:39.249500Z"}}}